TimePDT,TemperatureF,Dew PointF,Humidity,Sea Level PressureIn,VisibilityMPH,Wind Direction,Wind SpeedMPH,Gust SpeedMPH,PrecipitationIn,Events,Conditions,WindDirDegrees,DateUTC
12:55 AM,34.0,28.0,79,30.16,10.0,Calm,Calm,-,N/A,,Clear,0,2013-03-30 07:55:00
1:55 AM,30.0,26.1,85,30.17,10.0,Calm,Calm,-,N/A,,Clear,0,2013-03-30 08:55:00
2:55 AM,33.1,28.0,82,30.16,10.0,Calm,Calm,-,N/A,,Clear,0,2013-03-30 09:55:00
3:55 AM,28.0,26.1,92,30.17,8.0,Calm,Calm,-,N/A,,Clear,0,2013-03-30 10:55:00
4:55 AM,28.0,27.0,96,30.17,10.0,Calm,Calm,-,N/A,,Clear,0,2013-03-30 11:55:00
5:55 AM,25.0,21.9,88,30.17,10.0,Calm,Calm,-,N/A,,Clear,0,2013-03-30 12:55:00
6:55 AM,25.0,23.0,92,30.18,10.0,Calm,Calm,-,N/A,,Clear,0,2013-03-30 13:55:00
7:55 AM,32.0,28.0,85,30.18,10.0,Calm,Calm,-,N/A,,Clear,0,2013-03-30 14:55:00
8:55 AM,41.0,32.0,70,30.17,10.0,Calm,Calm,-,N/A,,Clear,0,2013-03-30 15:55:00
9:55 AM,51.1,36.0,56,30.15,10.0,Calm,Calm,-,N/A,,Clear,0,2013-03-30 16:55:00
10:55 AM,60.1,34.0,38,30.12,10.0,Calm,Calm,-,N/A,,Clear,0,2013-03-30 17:55:00
11:55 AM,66.9,32.0,27,30.09,10.0,Calm,Calm,-,N/A,,Clear,0,2013-03-30 18:55:00
12:55 PM,68.0,27.0,21,30.09,10.0,Variable,3.5,-,N/A,,Clear,0,2013-03-30 19:55:00
1:55 PM,70.0,27.0,20,30.07,10.0,Variable,4.6,-,N/A,,Clear,0,2013-03-30 20:55:00
2:55 PM,73.0,24.1,16,30.02,10.0,South,9.2,-,N/A,,Clear,170,2013-03-30 21:55:00
3:55 PM,71.1,19.9,14,30.01,10.0,ESE,8.1,-,N/A,,Clear,120,2013-03-30 22:55:00
4:55 PM,70.0,21.9,16,30.00,10.0,SSE,4.6,-,N/A,,Mostly Cloudy,150,2013-03-30 23:55:00
5:55 PM,70.0,21.9,16,29.99,10.0,SE,4.6,-,N/A,,Clear,140,2013-03-31 00:55:00
6:55 PM,66.0,23.0,20,29.99,10.0,Calm,Calm,-,N/A,,Clear,0,2013-03-31 01:55:00
7:55 PM,59.0,35.1,41,30.00,10.0,West,17.3,23.0,N/A,,Mostly Cloudy,260,2013-03-31 02:55:00
8:35 PM,55.4,35.6,47,30.02,10.0,West,9.2,-,N/A,,Mostly Cloudy,260,2013-03-31 03:35:00
8:55 PM,54.0,36.0,51,29.99,10.0,West,8.1,-,N/A,,Scattered Clouds,260,2013-03-31 03:55:00
9:55 PM,54.0,37.0,53,29.98,10.0,West,9.2,-,N/A,,Overcast,280,2013-03-31 04:55:00
10:55 PM,52.0,37.0,57,29.98,10.0,ENE,5.8,-,N/A,,Mostly Cloudy,70,2013-03-31 05:55:00
11:55 PM,48.9,36.0,61,29.96,10.0,NE,4.6,-,N/A,,Partly Cloudy,40,2013-03-31 06:55:00